Tracking 19570 objects as of 22-Feb-2019
HD Live streaming from Space Station
objects crossing your sky now

COSMOS 1651 (GLONASS)

Track COSMOS 1651 (GLONASS) now!
COSMOS 1651 (GLONASS) is classified as:


NORAD ID: 15698
Int'l Code: 1985-037B
Perigee: 19,099.0 km
Apogee: 19,171.2 km
Inclination: 64.1 °
Period: 675.7 minutes
Semi major axis: 25506 km
RCS: 1.6087 m2 (large)
Launch date: May 17, 1985
Source: Commonwealth of Independent States (former USSR) (CIS)
Launch site: TYURATAM MISSILE AND SPACE COMPLEX (TTMTR)
aabbcc
Your satellite tracking list
Your tracking list is empty




NASA's NSSDC Master Catalog

Two Line Element Set (TLE):
1 15698U 85037B   19052.32361153  .00000017  00000-0  00000+0 0  9990
2 15698  64.1012 164.7750 0014142  13.2265  63.9344  2.13126045262818
Source of the keplerian elements: AFSPC